Tracking 19170 objects as of 22-May-2018
HD Live streaming from Space Station
objects crossing your sky now

COSMOS 1827

Track COSMOS 1827 now!
10-day predictions
COSMOS 1827 is classified as:


NORAD ID: 17582
Int'l Code: 1987-026A
Perigee: 1,400.6 km
Apogee: 1,419.1 km
Inclination: 82.6 °
Period: 113.8 minutes
Semi major axis: 7780 km
RCS: 0.9685 m2 (medium)
Launch date: March 13, 1987
Source: Commonwealth of Independent States (former USSR) (CIS)
Launch site: PLESETSK MISSILE AND SPACE COMPLEX (PKMTR)
aabbcc
Your satellite tracking list
Your tracking list is empty




NASA's NSSDC Master Catalog

Two Line Element Set (TLE):
1 17582U 87026A   18141.83179826 +.00000031 +00000-0 +11025-3 0  9991
2 17582 082.5679 284.8275 0011920 029.9801 087.5167 12.64922510439877
Source of the keplerian elements: AFSPC